Time,TemperatureF,DewpointF,PressureIn,WindDirection,WindDirectionDegrees,WindSpeedMPH,WindSpeedGustMPH,Humidity,HourlyPrecipIn,Conditions,Clouds,dailyrainin,SoftwareType,DateUTC
2013-02-20 00:04:00,23.0,15.6,30.09,NNW,337,5.0,15.0,73,0.00,,,0.00,Weather View 32 v70,2013-02-20 05:04:00,
2013-02-20 00:09:00,23.0,15.6,30.09,NW,315,6.0,15.0,73,0.00,,,0.00,Weather View 32 v70,2013-02-20 05:09:00,
2013-02-20 00:14:00,23.0,15.6,30.09,NW,315,8.0,15.0,73,0.00,,,0.00,Weather View 32 v70,2013-02-20 05:14:00,
2013-02-20 00:19:00,23.0,15.3,30.09,WNW,292,6.0,14.0,72,0.00,,,0.00,Weather View 32 v70,2013-02-20 05:19:00,
2013-02-20 00:24:00,23.0,15.3,30.10,NW,315,5.0,14.0,72,0.00,,,0.00,Weather View 32 v70,2013-02-20 05:24:00,
2013-02-20 00:29:00,23.0,15.0,30.09,WSW,247,8.0,14.0,71,0.00,,,0.00,Weather View 32 v70,2013-02-20 05:29:00,
2013-02-20 00:34:00,23.0,14.3,30.09,NW,315,9.0,16.0,69,0.00,,,0.00,Weather View 32 v70,2013-02-20 05:34:00,
2013-02-20 00:39:00,23.0,14.3,30.10,NW,315,7.0,16.0,69,0.00,,,0.00,Weather View 32 v70,2013-02-20 05:39:00,
2013-02-20 00:44:00,23.0,14.3,30.09,WNW,292,9.0,16.0,69,0.00,,,0.00,Weather View 32 v70,2013-02-20 05:44:00,
2013-02-20 00:49:00,22.0,13.7,30.09,WNW,292,11.0,16.0,70,0.00,,,0.00,Weather View 32 v70,2013-02-20 05:49:00,
2013-02-20 00:54:00,22.0,14.0,30.09,West,270,6.0,16.0,71,0.00,,,0.00,Weather View 32 v70,2013-02-20 05:54:00,
2013-02-20 01:04:00,22.0,14.7,30.09,West,270,4.0,16.0,73,0.00,,,0.00,Weather View 32 v70,2013-02-20 06:04:00,
2013-02-20 01:09:00,22.0,14.7,30.10,West,270,3.0,16.0,73,0.00,,,0.00,Weather View 32 v70,2013-02-20 06:09:00,
2013-02-20 01:14:00,22.0,15.0,30.10,WNW,292,5.0,16.0,74,0.00,,,0.00,Weather View 32 v70,2013-02-20 06:14:00,
2013-02-20 01:19:00,21.0,14.3,30.10,WSW,247,7.0,16.0,75,0.00,,,0.00,Weather View 32 v70,2013-02-20 06:19:00,
2013-02-20 01:29:00,21.0,14.6,30.10,WSW,247,3.0,16.0,76,0.00,,,0.00,Weather View 32 v70,2013-02-20 06:29:00,
2013-02-20 01:34:00,21.0,14.9,30.11,WNW,292,6.0,16.0,77,0.00,,,0.00,Weather View 32 v70,2013-02-20 06:34:00,
2013-02-20 01:39:00,21.0,14.9,30.10,NW,315,7.0,16.0,77,0.00,,,0.00,Weather View 32 v70,2013-02-20 06:39:00,
2013-02-20 01:44:00,21.0,14.9,30.10,NW,315,1.0,13.0,77,0.00,,,0.00,Weather View 32 v70,2013-02-20 06:44:00,
2013-02-20 01:49:00,21.0,15.2,30.10,West,270,6.0,13.0,78,0.00,,,0.00,Weather View 32 v70,2013-02-20 06:49:00,
2013-02-20 01:54:00,21.0,15.2,30.10,WNW,292,5.0,13.0,78,0.00,,,0.00,Weather View 32 v70,2013-02-20 06:54:00,
2013-02-20 01:59:00,21.0,15.2,30.09,NW,315,5.0,13.0,78,0.00,,,0.00,Weather View 32 v70,2013-02-20 06:59:00,
2013-02-20 02:09:00,21.0,15.5,30.09,WNW,292,5.0,13.0,79,0.00,,,0.00,Weather View 32 v70,2013-02-20 07:09:00,
2013-02-20 02:14:00,21.0,15.5,30.09,West,270,9.0,13.0,79,0.00,,,0.00,Weather View 32 v70,2013-02-20 07:14:00,
2013-02-20 02:19:00,21.0,15.5,30.09,NW,315,3.0,13.0,79,0.00,,,0.00,Weather View 32 v70,2013-02-20 07:19:00,
2013-02-20 02:24:00,21.0,15.5,30.10,West,270,5.0,13.0,79,0.00,,,0.00,Weather View 32 v70,2013-02-20 07:24:00,
2013-02-20 02:29:00,21.0,15.8,30.10,NW,315,6.0,13.0,80,0.00,,,0.00,Weather View 32 v70,2013-02-20 07:29:00,
2013-02-20 02:34:00,21.0,15.5,30.11,WSW,247,5.0,13.0,79,0.00,,,0.00,Weather View 32 v70,2013-02-20 07:34:00,
2013-02-20 02:39:00,21.0,15.5,30.11,WNW,292,4.0,13.0,79,0.00,,,0.00,Weather View 32 v70,2013-02-20 07:39:00,
2013-02-20 02:44:00,21.0,15.5,30.11,WNW,292,4.0,13.0,79,0.00,,,0.00,Weather View 32 v70,2013-02-20 07:44:00,
2013-02-20 02:54:00,21.0,15.5,30.11,WSW,247,3.0,13.0,79,0.00,,,0.00,Weather View 32 v70,2013-02-20 07:54:00,
2013-02-20 03:09:00,21.0,15.5,30.11,WNW,292,6.0,14.0,79,0.00,,,0.00,Weather View 32 v70,2013-02-20 08:09:00,
2013-02-20 03:14:00,21.0,15.2,30.12,WSW,247,7.0,14.0,78,0.00,,,0.00,Weather View 32 v70,2013-02-20 08:14:00,
2013-02-20 03:19:00,21.0,15.2,30.11,WNW,292,8.0,14.0,78,0.00,,,0.00,Weather View 32 v70,2013-02-20 08:19:00,
2013-02-20 03:29:00,21.0,15.2,30.12,West,270,6.0,15.0,78,0.00,,,0.00,Weather View 32 v70,2013-02-20 08:29:00,
2013-02-20 03:34:00,21.0,15.2,30.12,WNW,292,8.0,15.0,78,0.00,,,0.00,Weather View 32 v70,2013-02-20 08:34:00,
2013-02-20 03:39:00,20.0,14.2,30.12,NW,315,5.0,15.0,78,0.00,,,0.00,Weather View 32 v70,2013-02-20 08:39:00,
2013-02-20 03:44:00,20.0,14.5,30.12,West,270,9.0,15.0,79,0.00,,,0.00,Weather View 32 v70,2013-02-20 08:44:00,
2013-02-20 03:49:00,20.0,14.8,30.12,NW,315,2.0,15.0,80,0.00,,,0.00,Weather View 32 v70,2013-02-20 08:49:00,
2013-02-20 03:59:00,20.0,15.1,30.12,NW,315,5.0,15.0,81,0.00,,,0.00,Weather View 32 v70,2013-02-20 08:59:00,
2013-02-20 04:04:00,20.0,15.1,30.12,NW,315,1.0,15.0,81,0.00,,,0.00,Weather View 32 v70,2013-02-20 09:04:00,
2013-02-20 04:09:00,20.0,15.1,30.13,WSW,247,4.0,15.0,81,0.00,,,0.00,Weather View 32 v70,2013-02-20 09:09:00,
2013-02-20 04:14:00,20.0,15.7,30.13,NW,315,7.0,15.0,83,0.00,,,0.00,Weather View 32 v70,2013-02-20 09:14:00,
2013-02-20 04:19:00,20.0,15.7,30.12,NNW,337,3.0,15.0,83,0.00,,,0.00,Weather View 32 v70,2013-02-20 09:19:00,
2013-02-20 04:24:00,19.0,14.7,30.12,NNW,337,1.0,12.0,83,0.00,,,0.00,Weather View 32 v70,2013-02-20 09:24:00,
2013-02-20 04:29:00,19.0,14.4,30.12,North,360,5.0,12.0,82,0.00,,,0.00,Weather View 32 v70,2013-02-20 09:29:00,
2013-02-20 04:39:00,19.0,15.0,30.12,NW,315,5.0,13.0,84,0.00,,,0.00,Weather View 32 v70,2013-02-20 09:39:00,
2013-02-20 04:44:00,19.0,15.2,30.12,NW,315,9.0,13.0,85,0.00,,,0.00,Weather View 32 v70,2013-02-20 09:44:00,
2013-02-20 04:49:00,19.0,15.5,30.12,West,270,2.0,13.0,86,0.00,,,0.00,Weather View 32 v70,2013-02-20 09:49:00,
2013-02-20 04:54:00,18.0,14.5,30.12,WNW,292,5.0,13.0,86,0.00,,,0.00,Weather View 32 v70,2013-02-20 09:54:00,
2013-02-20 04:59:00,18.0,14.3,30.12,West,270,6.0,13.0,85,0.00,,,0.00,Weather View 32 v70,2013-02-20 09:59:00,
2013-02-20 05:04:00,18.0,14.3,30.12,NW,315,6.0,13.0,85,0.00,,,0.00,Weather View 32 v70,2013-02-20 10:04:00,
2013-02-20 05:14:00,18.0,14.3,30.13,WNW,292,4.0,13.0,85,0.00,,,0.00,Weather View 32 v70,2013-02-20 10:14:00,
2013-02-20 05:19:00,18.0,14.5,30.13,WNW,292,6.0,13.0,86,0.00,,,0.00,Weather View 32 v70,2013-02-20 10:19:00,
2013-02-20 05:24:00,18.0,14.5,30.14,WNW,292,8.0,13.0,86,0.00,,,0.00,Weather View 32 v70,2013-02-20 10:24:00,
2013-02-20 05:29:00,18.0,14.8,30.14,NW,315,2.0,13.0,87,0.00,,,0.00,Weather View 32 v70,2013-02-20 10:29:00,
2013-02-20 05:34:00,18.0,14.8,30.14,NNW,337,2.0,13.0,87,0.00,,,0.00,Weather View 32 v70,2013-02-20 10:34:00,
2013-02-20 05:39:00,18.0,14.8,30.14,NW,315,7.0,12.0,87,0.00,,,0.00,Weather View 32 v70,2013-02-20 10:39:00,
2013-02-20 05:44:00,17.0,13.8,30.14,SW,225,1.0,12.0,87,0.00,,,0.00,Weather View 32 v70,2013-02-20 10:44:00,
2013-02-20 05:54:00,17.0,13.8,30.14,WSW,247,6.0,12.0,87,0.00,,,0.00,Weather View 32 v70,2013-02-20 10:54:00,
2013-02-20 05:59:00,17.0,13.8,30.14,West,270,6.0,12.0,87,0.00,,,0.00,Weather View 32 v70,2013-02-20 10:59:00,
2013-02-20 06:04:00,17.0,14.1,30.14,West,270,6.0,12.0,88,0.00,,,0.00,Weather View 32 v70,2013-02-20 11:04:00,
2013-02-20 06:09:00,17.0,14.3,30.14,West,270,4.0,12.0,89,0.00,,,0.00,Weather View 32 v70,2013-02-20 11:09:00,
2013-02-20 06:14:00,17.0,14.3,30.15,NNW,337,1.0,12.0,89,0.00,,,0.00,Weather View 32 v70,2013-02-20 11:14:00,
2013-02-20 06:19:00,16.0,13.3,30.15,WSW,247,1.0,11.0,89,0.00,,,0.00,Weather View 32 v70,2013-02-20 11:19:00,
2013-02-20 06:24:00,16.0,13.8,30.15,NW,315,2.0,11.0,91,0.00,,,0.00,Weather View 32 v70,2013-02-20 11:24:00,
2013-02-20 06:29:00,16.0,13.6,30.15,WNW,292,3.0,11.0,90,0.00,,,0.00,Weather View 32 v70,2013-02-20 11:29:00,
2013-02-20 06:39:00,16.0,13.8,30.15,WSW,247,6.0,11.0,91,0.00,,,0.00,Weather View 32 v70,2013-02-20 11:39:00,
2013-02-20 06:44:00,16.0,13.8,30.15,WSW,247,1.0,10.0,91,0.00,,,0.00,Weather View 32 v70,2013-02-20 11:44:00,
2013-02-20 06:49:00,16.0,13.8,30.15,WNW,292,6.0,10.0,91,0.00,,,0.00,Weather View 32 v70,2013-02-20 11:49:00,
2013-02-20 06:54:00,16.0,13.8,30.15,NW,315,5.0,9.0,91,0.00,,,0.00,Weather View 32 v70,2013-02-20 11:54:00,
2013-02-20 06:59:00,16.0,14.1,30.15,West,270,1.0,9.0,92,0.00,,,0.00,Weather View 32 v70,2013-02-20 11:59:00,
2013-02-20 07:04:00,15.0,13.1,30.15,WNW,292,4.0,9.0,92,0.00,,,0.00,Weather View 32 v70,2013-02-20 12:04:00,
2013-02-20 07:09:00,15.0,13.3,30.15,SW,225,5.0,9.0,93,0.00,,,0.00,Weather View 32 v70,2013-02-20 12:09:00,
2013-02-20 07:14:00,15.0,13.3,30.15,NW,315,1.0,9.0,93,0.00,,,0.00,Weather View 32 v70,2013-02-20 12:14:00,
2013-02-20 07:19:00,15.0,13.3,30.15,WNW,292,7.0,10.0,93,0.00,,,0.00,Weather View 32 v70,2013-02-20 12:19:00,
2013-02-20 07:29:00,15.0,13.3,30.16,WNW,292,3.0,10.0,93,0.00,,,0.00,Weather View 32 v70,2013-02-20 12:29:00,
2013-02-20 07:34:00,15.0,13.6,30.16,WNW,292,4.0,10.0,94,0.00,,,0.00,Weather View 32 v70,2013-02-20 12:34:00,
2013-02-20 07:44:00,15.0,13.6,30.17,North,360,3.0,10.0,94,0.00,,,0.00,Weather View 32 v70,2013-02-20 12:44:00,
2013-02-20 07:50:00,15.0,13.6,30.17,WNW,292,11.0,11.0,94,0.00,,,0.00,Weather View 32 v70,2013-02-20 12:50:00,
2013-02-20 07:59:00,15.0,13.1,30.18,West,270,1.0,11.0,92,0.00,,,0.00,Weather View 32 v70,2013-02-20 12:59:00,
2013-02-20 08:04:00,15.0,13.1,30.18,WSW,247,3.0,11.0,92,0.00,,,0.00,Weather View 32 v70,2013-02-20 13:04:00,
2013-02-20 08:09:00,15.0,12.9,30.19,WNW,292,4.0,11.0,91,0.00,,,0.00,Weather View 32 v70,2013-02-20 13:09:00,
2013-02-20 08:19:00,16.0,13.3,30.20,NW,315,3.0,11.0,89,0.00,,,0.00,Weather View 32 v70,2013-02-20 13:19:00,
2013-02-20 08:24:00,16.0,13.3,30.20,WNW,292,5.0,12.0,89,0.00,,,0.00,Weather View 32 v70,2013-02-20 13:24:00,
2013-02-20 08:29:00,16.0,12.8,30.21,WSW,247,4.0,12.0,87,0.00,,,0.00,Weather View 32 v70,2013-02-20 13:29:00,
2013-02-20 08:34:00,17.0,13.8,30.21,West,270,1.0,12.0,87,0.00,,,0.00,Weather View 32 v70,2013-02-20 13:34:00,
2013-02-20 08:39:00,17.0,13.5,30.20,West,270,3.0,12.0,86,0.00,,,0.00,Weather View 32 v70,2013-02-20 13:39:00,
2013-02-20 08:44:00,17.0,13.5,30.20,WNW,292,4.0,12.0,86,0.00,,,0.00,Weather View 32 v70,2013-02-20 13:44:00,
2013-02-20 08:49:00,18.0,15.1,30.19,WNW,292,1.0,12.0,88,0.00,,,0.00,Weather View 32 v70,2013-02-20 13:49:00,
2013-02-20 08:54:00,18.0,15.8,30.19,WNW,292,7.0,12.0,91,0.00,,,0.00,Weather View 32 v70,2013-02-20 13:54:00,
2013-02-20 09:04:00,19.0,15.5,30.20,NNW,337,5.0,12.0,86,0.00,,,0.00,Weather View 32 v70,2013-02-20 14:04:00,
2013-02-20 09:09:00,19.0,15.0,30.20,NNW,337,6.0,12.0,84,0.00,,,0.00,Weather View 32 v70,2013-02-20 14:09:00,
2013-02-20 09:14:00,19.0,14.1,30.19,NW,315,7.0,12.0,81,0.00,,,0.00,Weather View 32 v70,2013-02-20 14:14:00,
2013-02-20 09:19:00,20.0,14.8,30.20,NNW,337,1.0,12.0,80,0.00,,,0.00,Weather View 32 v70,2013-02-20 14:19:00,
2013-02-20 09:24:00,20.0,14.8,30.20,NW,315,9.0,12.0,80,0.00,,,0.00,Weather View 32 v70,2013-02-20 14:24:00,
2013-02-20 09:29:00,20.0,15.1,30.20,NW,315,4.0,12.0,81,0.00,,,0.00,Weather View 32 v70,2013-02-20 14:29:00,
2013-02-20 09:34:00,21.0,15.5,30.20,North,360,3.0,12.0,79,0.00,,,0.00,Weather View 32 v70,2013-02-20 14:34:00,
2013-02-20 09:44:00,21.0,14.6,30.22,NW,315,4.0,12.0,76,0.00,,,0.00,Weather View 32 v70,2013-02-20 14:44:00,
2013-02-20 09:49:00,22.0,15.3,30.22,North,360,6.0,10.0,75,0.00,,,0.00,Weather View 32 v70,2013-02-20 14:49:00,
2013-02-20 09:54:00,22.0,14.7,30.21,North,360,5.0,10.0,73,0.00,,,0.00,Weather View 32 v70,2013-02-20 14:54:00,
2013-02-20 09:59:00,22.0,15.0,30.21,NW,315,5.0,10.0,74,0.00,,,0.00,Weather View 32 v70,2013-02-20 14:59:00,
2013-02-20 10:04:00,23.0,16.0,30.22,NW,315,3.0,10.0,74,0.00,,,0.00,Weather View 32 v70,2013-02-20 15:04:00,
2013-02-20 10:09:00,23.0,15.0,30.22,NW,315,6.0,10.0,71,0.00,,,0.00,Weather View 32 v70,2013-02-20 15:09:00,
2013-02-20 10:19:00,23.0,15.3,30.22,West,270,1.0,10.0,72,0.00,,,0.00,Weather View 32 v70,2013-02-20 15:19:00,
2013-02-20 10:24:00,23.0,14.3,30.22,West,270,7.0,10.0,69,0.00,,,0.00,Weather View 32 v70,2013-02-20 15:24:00,
2013-02-20 10:29:00,23.0,14.0,30.23,WNW,292,1.0,10.0,68,0.00,,,0.00,Weather View 32 v70,2013-02-20 15:29:00,
2013-02-20 10:34:00,24.0,16.0,30.23,WNW,292,3.0,10.0,71,0.00,,,0.00,Weather View 32 v70,2013-02-20 15:34:00,
2013-02-20 10:39:00,24.0,15.0,30.23,NNW,337,3.0,10.0,68,0.00,,,0.00,Weather View 32 v70,2013-02-20 15:39:00,
2013-02-20 10:44:00,24.0,15.3,30.23,North,360,3.0,10.0,69,0.00,,,0.00,Weather View 32 v70,2013-02-20 15:44:00,
2013-02-20 10:49:00,24.0,15.0,30.24,WNW,292,2.0,10.0,68,0.00,,,0.00,Weather View 32 v70,2013-02-20 15:49:00,
2013-02-20 10:54:00,24.0,15.0,30.25,North,360,5.0,10.0,68,0.00,,,0.00,Weather View 32 v70,2013-02-20 15:54:00,
2013-02-20 11:04:00,25.0,15.9,30.25,NW,315,5.0,10.0,68,0.00,,,0.00,Weather View 32 v70,2013-02-20 16:04:00,
2013-02-20 11:09:00,25.0,15.2,30.25,NW,315,1.0,10.0,66,0.00,,,0.00,Weather View 32 v70,2013-02-20 16:09:00,
2013-02-20 11:14:00,25.0,15.2,30.26,NW,315,1.0,10.0,66,0.00,,,0.00,Weather View 32 v70,2013-02-20 16:14:00,
2013-02-20 11:19:00,25.0,15.2,30.26,WNW,292,6.0,10.0,66,0.00,,,0.00,Weather View 32 v70,2013-02-20 16:19:00,
2013-02-20 11:24:00,26.0,16.2,30.26,WNW,292,1.0,10.0,66,0.00,,,0.00,Weather View 32 v70,2013-02-20 16:24:00,
2013-02-20 11:29:00,25.0,14.2,30.25,West,270,1.0,10.0,63,0.00,,,0.00,Weather View 32 v70,2013-02-20 16:29:00,
2013-02-20 11:34:00,26.0,15.5,30.25,North,360,6.0,10.0,64,0.00,,,0.00,Weather View 32 v70,2013-02-20 16:34:00,
2013-02-20 11:39:00,26.0,15.5,30.25,NW,315,3.0,10.0,64,0.00,,,0.00,Weather View 32 v70,2013-02-20 16:39:00,
2013-02-20 11:49:00,27.0,15.3,30.25,NW,315,5.0,10.0,61,0.00,,,0.00,Weather View 32 v70,2013-02-20 16:49:00,
2013-02-20 11:54:00,27.0,16.4,30.24,West,270,4.0,10.0,64,0.00,,,0.00,Weather View 32 v70,2013-02-20 16:54:00,
2013-02-20 11:59:00,27.0,15.7,30.24,SE,135,1.0,10.0,62,0.00,,,0.00,Weather View 32 v70,2013-02-20 16:59:00,
2013-02-20 12:04:00,27.0,15.7,30.24,SW,225,4.0,10.0,62,0.00,,,0.00,Weather View 32 v70,2013-02-20 17:04:00,
2013-02-20 12:09:00,28.0,16.3,30.25,WNW,292,2.0,10.0,61,0.00,,,0.00,Weather View 32 v70,2013-02-20 17:09:00,
2013-02-20 12:14:00,28.0,16.3,30.25,WNW,292,4.0,10.0,61,0.00,,,0.00,Weather View 32 v70,2013-02-20 17:14:00,
2013-02-20 12:24:00,28.0,16.3,30.24,North,360,6.0,10.0,61,0.00,,,0.00,Weather View 32 v70,2013-02-20 17:24:00,
2013-02-20 12:29:00,28.0,14.7,30.24,North,360,7.0,10.0,57,0.00,,,0.00,Weather View 32 v70,2013-02-20 17:29:00,
2013-02-20 12:34:00,28.0,16.3,30.24,SW,225,1.0,10.0,61,0.00,,,0.00,Weather View 32 v70,2013-02-20 17:34:00,
2013-02-20 12:39:00,28.0,15.9,30.24,WSW,247,4.0,10.0,60,0.00,,,0.00,Weather View 32 v70,2013-02-20 17:39:00,
2013-02-20 12:44:00,28.0,14.3,30.24,NW,315,2.0,10.0,56,0.00,,,0.00,Weather View 32 v70,2013-02-20 17:44:00,
2013-02-20 12:49:00,28.0,16.3,30.23,NW,315,6.0,10.0,61,0.00,,,0.00,Weather View 32 v70,2013-02-20 17:49:00,
2013-02-20 12:59:00,28.0,12.6,30.22,WSW,247,6.0,10.0,52,0.00,,,0.00,Weather View 32 v70,2013-02-20 17:59:00,
2013-02-20 13:04:00,28.0,15.1,30.22,West,270,1.0,10.0,58,0.00,,,0.00,Weather View 32 v70,2013-02-20 18:04:00,
2013-02-20 13:14:00,29.0,16.5,30.22,NW,315,7.0,10.0,59,0.00,,,0.00,Weather View 32 v70,2013-02-20 18:14:00,
2013-02-20 13:19:00,29.0,14.8,30.22,West,270,6.0,10.0,55,0.00,,,0.00,Weather View 32 v70,2013-02-20 18:19:00,
2013-02-20 13:24:00,29.0,15.7,30.22,SW,225,2.0,10.0,57,0.00,,,0.00,Weather View 32 v70,2013-02-20 18:24:00,
2013-02-20 13:29:00,30.0,16.6,30.22,West,270,4.0,9.0,57,0.00,,,0.00,Weather View 32 v70,2013-02-20 18:29:00,
2013-02-20 13:34:00,30.0,14.5,30.22,West,270,6.0,11.0,52,0.00,,,0.00,Weather View 32 v70,2013-02-20 18:34:00,
2013-02-20 13:39:00,30.0,14.5,30.21,North,360,9.0,11.0,52,0.00,,,0.00,Weather View 32 v70,2013-02-20 18:39:00,
2013-02-20 13:44:00,30.0,14.9,30.21,NW,315,7.0,12.0,53,0.00,,,0.00,Weather View 32 v70,2013-02-20 18:44:00,
2013-02-20 13:53:00,30.0,15.8,30.21,West,270,3.0,12.0,55,0.00,,,0.00,Weather View 32 v70,2013-02-20 18:53:00,
2013-02-20 13:59:00,31.0,16.7,30.22,WNW,292,7.0,12.0,55,0.00,,,0.00,Weather View 32 v70,2013-02-20 18:59:00,
2013-02-20 14:04:00,31.0,15.9,30.21,NW,315,6.0,12.0,53,0.00,,,0.00,Weather View 32 v70,2013-02-20 19:04:00,
2013-02-20 14:09:00,31.0,16.3,30.21,WNW,292,2.0,12.0,54,0.00,,,0.00,Weather View 32 v70,2013-02-20 19:09:00,
2013-02-20 14:14:00,31.0,17.5,30.21,WNW,292,0.0,12.0,57,0.00,,,0.00,Weather View 32 v70,2013-02-20 19:14:00,
2013-02-20 14:19:00,31.0,15.9,30.21,West,270,5.0,12.0,53,0.00,,,0.00,Weather View 32 v70,2013-02-20 19:19:00,
2013-02-20 14:29:00,31.0,15.9,30.22,West,270,1.0,12.0,53,0.00,,,0.00,Weather View 32 v70,2013-02-20 19:29:00,
2013-02-20 14:34:00,32.0,17.2,30.22,North,360,4.0,12.0,54,0.00,,,0.00,Weather View 32 v70,2013-02-20 19:34:00,
2013-02-20 14:39:00,32.0,18.1,30.21,West,270,6.0,12.0,56,0.00,,,0.00,Weather View 32 v70,2013-02-20 19:39:00,
2013-02-20 14:44:00,32.0,17.6,30.22,West,270,3.0,10.0,55,0.00,,,0.00,Weather View 32 v70,2013-02-20 19:44:00,
2013-02-20 14:49:00,31.0,15.9,30.22,WNW,292,6.0,10.0,53,0.00,,,0.00,Weather View 32 v70,2013-02-20 19:49:00,
2013-02-20 14:54:00,31.0,15.9,30.22,WNW,292,8.0,11.0,53,0.00,,,0.00,Weather View 32 v70,2013-02-20 19:54:00,
2013-02-20 15:04:00,31.0,16.7,30.22,WSW,247,8.0,11.0,55,0.00,,,0.00,Weather View 32 v70,2013-02-20 20:04:00,
2013-02-20 15:09:00,30.0,14.9,30.21,SW,225,5.0,12.0,53,0.00,,,0.00,Weather View 32 v70,2013-02-20 20:09:00,
2013-02-20 15:14:00,30.0,16.2,30.21,WSW,247,2.0,12.0,56,0.00,,,0.00,Weather View 32 v70,2013-02-20 20:14:00,
2013-02-20 15:19:00,30.0,14.9,30.21,West,270,3.0,12.0,53,0.00,,,0.00,Weather View 32 v70,2013-02-20 20:19:00,
2013-02-20 15:24:00,31.0,15.9,30.21,West,270,3.0,12.0,53,0.00,,,0.00,Weather View 32 v70,2013-02-20 20:24:00,
2013-02-20 15:29:00,31.0,15.9,30.21,WSW,247,6.0,12.0,53,0.00,,,0.00,Weather View 32 v70,2013-02-20 20:29:00,
2013-02-20 15:34:00,31.0,16.7,30.21,NNW,337,5.0,12.0,55,0.00,,,0.00,Weather View 32 v70,2013-02-20 20:34:00,
2013-02-20 15:39:00,31.0,15.9,30.21,NW,315,1.0,12.0,53,0.00,,,0.00,Weather View 32 v70,2013-02-20 20:39:00,
2013-02-20 15:44:00,30.0,14.9,30.21,WNW,292,7.0,12.0,53,0.00,,,0.00,Weather View 32 v70,2013-02-20 20:44:00,
2013-02-20 15:49:00,30.0,14.9,30.21,WNW,292,6.0,12.0,53,0.00,,,0.00,Weather View 32 v70,2013-02-20 20:49:00,
2013-02-20 15:59:00,30.0,15.4,30.20,West,270,2.0,12.0,54,0.00,,,0.00,Weather View 32 v70,2013-02-20 20:59:00,
2013-02-20 16:04:00,30.0,14.9,30.20,West,270,5.0,12.0,53,0.00,,,0.00,Weather View 32 v70,2013-02-20 21:04:00,
2013-02-20 16:09:00,30.0,15.4,30.20,North,360,6.0,12.0,54,0.00,,,0.00,Weather View 32 v70,2013-02-20 21:09:00,
2013-02-20 16:19:00,30.0,14.9,30.20,NNW,337,3.0,11.0,53,0.00,,,0.00,Weather View 32 v70,2013-02-20 21:19:00,
2013-02-20 16:24:00,29.0,14.8,30.19,North,360,5.0,11.0,55,0.00,,,0.00,Weather View 32 v70,2013-02-20 21:24:00,
2013-02-20 16:29:00,29.0,15.7,30.19,North,360,7.0,11.0,57,0.00,,,0.00,Weather View 32 v70,2013-02-20 21:29:00,
2013-02-20 16:34:00,29.0,15.3,30.19,North,360,6.0,11.0,56,0.00,,,0.00,Weather View 32 v70,2013-02-20 21:34:00,
2013-02-20 16:44:00,28.0,16.7,30.19,North,360,4.0,11.0,62,0.00,,,0.00,Weather View 32 v70,2013-02-20 21:44:00,
2013-02-20 16:49:00,28.0,15.5,30.19,NNW,337,4.0,11.0,59,0.00,,,0.00,Weather View 32 v70,2013-02-20 21:49:00,
2013-02-20 16:55:00,28.0,14.7,30.19,West,270,3.0,11.0,57,0.00,,,0.00,Weather View 32 v70,2013-02-20 21:55:00,
2013-02-20 17:04:00,28.0,15.9,30.19,West,270,2.0,11.0,60,0.00,,,0.00,Weather View 32 v70,2013-02-20 22:04:00,
2013-02-20 17:09:00,28.0,15.5,30.19,WNW,292,4.0,11.0,59,0.00,,,0.00,Weather View 32 v70,2013-02-20 22:09:00,
2013-02-20 17:14:00,27.0,14.6,30.19,WSW,247,3.0,11.0,59,0.00,,,0.00,Weather View 32 v70,2013-02-20 22:14:00,
2013-02-20 17:19:00,27.0,14.2,30.18,West,270,6.0,11.0,58,0.00,,,0.00,Weather View 32 v70,2013-02-20 22:19:00,
2013-02-20 17:24:00,27.0,14.6,30.18,West,270,0.0,11.0,59,0.00,,,0.00,Weather View 32 v70,2013-02-20 22:24:00,
2013-02-20 17:29:00,27.0,15.0,30.18,NW,315,5.0,11.0,60,0.00,,,0.00,Weather View 32 v70,2013-02-20 22:29:00,
2013-02-20 17:34:00,27.0,14.6,30.19,WNW,292,4.0,10.0,59,0.00,,,0.00,Weather View 32 v70,2013-02-20 22:34:00,
2013-02-20 17:44:00,27.0,14.6,30.21,West,270,2.0,8.0,59,0.00,,,0.00,Weather View 32 v70,2013-02-20 22:44:00,
2013-02-20 17:49:00,26.0,14.4,30.21,WNW,292,3.0,8.0,61,0.00,,,0.00,Weather View 32 v70,2013-02-20 22:49:00,
2013-02-20 17:54:00,26.0,14.0,30.21,WNW,292,6.0,8.0,60,0.00,,,0.00,Weather View 32 v70,2013-02-20 22:54:00,
2013-02-20 17:59:00,26.0,14.0,30.21,West,270,3.0,8.0,60,0.00,,,0.00,Weather View 32 v70,2013-02-20 22:59:00,
2013-02-20 18:04:00,26.0,14.0,30.21,NW,315,6.0,8.0,60,0.00,,,0.00,Weather View 32 v70,2013-02-20 23:04:00,
2013-02-20 18:09:00,26.0,14.0,30.21,West,270,3.0,8.0,60,0.00,,,0.00,Weather View 32 v70,2013-02-20 23:09:00,
2013-02-20 18:19:00,26.0,14.4,30.21,NW,315,3.0,9.0,61,0.00,,,0.00,Weather View 32 v70,2013-02-20 23:19:00,
2013-02-20 18:24:00,26.0,14.4,30.21,West,270,2.0,9.0,61,0.00,,,0.00,Weather View 32 v70,2013-02-20 23:24:00,
2013-02-20 18:29:00,26.0,14.8,30.21,WNW,292,1.0,9.0,62,0.00,,,0.00,Weather View 32 v70,2013-02-20 23:29:00,
2013-02-20 18:34:00,25.0,13.4,30.21,NW,315,5.0,9.0,61,0.00,,,0.00,Weather View 32 v70,2013-02-20 23:34:00,
2013-02-20 18:39:00,25.0,14.2,30.21,WNW,292,1.0,9.0,63,0.00,,,0.00,Weather View 32 v70,2013-02-20 23:39:00,
2013-02-20 18:44:00,25.0,14.2,30.21,North,360,4.0,9.0,63,0.00,,,0.00,Weather View 32 v70,2013-02-20 23:44:00,
2013-02-20 18:49:00,25.0,14.9,30.20,NW,315,3.0,9.0,65,0.00,,,0.00,Weather View 32 v70,2013-02-20 23:49:00,
2013-02-20 18:54:00,25.0,14.9,30.21,NNW,337,2.0,9.0,65,0.00,,,0.00,Weather View 32 v70,2013-02-20 23:54:00,
2013-02-20 18:59:00,25.0,15.2,30.20,North,360,7.0,9.0,66,0.00,,,0.00,Weather View 32 v70,2013-02-20 23:59:00,
2013-02-20 19:09:00,25.0,15.2,30.19,NW,315,5.0,9.0,66,0.00,,,0.00,Weather View 32 v70,2013-02-21 00:09:00,
2013-02-20 19:14:00,25.0,15.6,30.19,NW,315,5.0,9.0,67,0.00,,,0.00,Weather View 32 v70,2013-02-21 00:14:00,
2013-02-20 19:19:00,25.0,15.9,30.20,North,360,2.0,9.0,68,0.00,,,0.00,Weather View 32 v70,2013-02-21 00:19:00,
2013-02-20 19:24:00,25.0,15.9,30.20,North,360,4.0,9.0,68,0.00,,,0.00,Weather View 32 v70,2013-02-21 00:24:00,
2013-02-20 19:29:00,25.0,15.9,30.20,NW,315,1.0,9.0,68,0.00,,,0.00,Weather View 32 v70,2013-02-21 00:29:00,
2013-02-20 19:34:00,25.0,16.9,30.20,NW,315,2.0,9.0,71,0.00,,,0.00,Weather View 32 v70,2013-02-21 00:34:00,
2013-02-20 19:39:00,25.0,16.9,30.20,NNW,337,6.0,9.0,71,0.00,,,0.00,Weather View 32 v70,2013-02-21 00:39:00,
2013-02-20 19:49:00,24.0,15.3,30.19,North,360,6.0,9.0,69,0.00,,,0.00,Weather View 32 v70,2013-02-21 00:49:00,
2013-02-20 19:54:00,24.0,15.3,30.19,North,360,2.0,9.0,69,0.00,,,0.00,Weather View 32 v70,2013-02-21 00:54:00,
2013-02-20 19:59:00,24.0,15.0,30.19,NNW,337,3.0,9.0,68,0.00,,,0.00,Weather View 32 v70,2013-02-21 00:59:00,
2013-02-20 20:04:00,24.0,15.3,30.19,North,360,2.0,9.0,69,0.00,,,0.00,Weather View 32 v70,2013-02-21 01:04:00,
2013-02-20 20:09:00,24.0,15.3,30.19,NNW,337,4.0,9.0,69,0.00,,,0.00,Weather View 32 v70,2013-02-21 01:09:00,
2013-02-20 20:14:00,24.0,15.3,30.19,North,360,3.0,9.0,69,0.00,,,0.00,Weather View 32 v70,2013-02-21 01:14:00,
2013-02-20 20:19:00,24.0,15.3,30.19,North,360,3.0,9.0,69,0.00,,,0.00,Weather View 32 v70,2013-02-21 01:19:00,
2013-02-20 20:29:00,24.0,15.3,30.19,NNW,337,1.0,9.0,69,0.00,,,0.00,Weather View 32 v70,2013-02-21 01:29:00,
2013-02-20 20:34:00,24.0,15.6,30.19,North,360,4.0,9.0,70,0.00,,,0.00,Weather View 32 v70,2013-02-21 01:34:00,
2013-02-20 20:39:00,24.0,15.6,30.19,North,360,1.0,9.0,70,0.00,,,0.00,Weather View 32 v70,2013-02-21 01:39:00,
2013-02-20 20:44:00,24.0,15.3,30.20,NW,315,3.0,7.0,69,0.00,,,0.00,Weather View 32 v70,2013-02-21 01:44:00,
2013-02-20 20:49:00,24.0,15.3,30.20,NW,315,1.0,7.0,69,0.00,,,0.00,Weather View 32 v70,2013-02-21 01:49:00,
2013-02-20 20:57:00,24.0,16.0,30.20,North,360,4.0,7.0,71,0.00,,,0.00,Weather View 32 v70,2013-02-21 01:57:00,
2013-02-20 21:04:00,23.0,14.7,30.20,North,360,1.0,7.0,70,0.00,,,0.00,Weather View 32 v70,2013-02-21 02:04:00,
2013-02-20 21:09:00,23.0,14.7,30.20,North,360,3.0,7.0,70,0.00,,,0.00,Weather View 32 v70,2013-02-21 02:09:00,
2013-02-20 21:14:00,23.0,15.3,30.20,North,360,2.0,7.0,72,0.00,,,0.00,Weather View 32 v70,2013-02-21 02:14:00,
2013-02-20 21:19:00,22.0,14.7,30.19,North,360,3.0,7.0,73,0.00,,,0.00,Weather View 32 v70,2013-02-21 02:19:00,
2013-02-20 21:29:00,22.0,15.6,30.19,NNW,337,3.0,7.0,76,0.00,,,0.00,Weather View 32 v70,2013-02-21 02:29:00,
2013-02-20 21:34:00,22.0,15.0,30.19,NNW,337,2.0,7.0,74,0.00,,,0.00,Weather View 32 v70,2013-02-21 02:34:00,
2013-02-20 21:39:00,22.0,15.3,30.20,NNW,337,3.0,7.0,75,0.00,,,0.00,Weather View 32 v70,2013-02-21 02:39:00,
2013-02-20 21:44:00,22.0,15.3,30.19,North,360,3.0,7.0,75,0.00,,,0.00,Weather View 32 v70,2013-02-21 02:44:00,
2013-02-20 21:50:00,22.0,15.6,30.19,North,360,3.0,6.0,76,0.00,,,0.00,Weather View 32 v70,2013-02-21 02:50:00,
2013-02-20 21:57:00,22.0,15.9,30.20,North,360,2.0,6.0,77,0.00,,,0.00,Weather View 32 v70,2013-02-21 02:57:00,
2013-02-20 22:04:00,21.0,15.8,30.19,North,360,5.0,7.0,80,0.00,,,0.00,Weather View 32 v70,2013-02-21 03:04:00,
2013-02-20 22:09:00,22.0,16.5,30.20,North,360,6.0,8.0,79,0.00,,,0.00,Weather View 32 v70,2013-02-21 03:09:00,
2013-02-20 22:14:00,22.0,16.8,30.20,North,360,2.0,8.0,80,0.00,,,0.00,Weather View 32 v70,2013-02-21 03:14:00,
2013-02-20 22:19:00,22.0,16.5,30.20,North,360,2.0,8.0,79,0.00,,,0.00,Weather View 32 v70,2013-02-21 03:19:00,
2013-02-20 22:24:00,21.0,15.5,30.20,North,360,2.0,8.0,79,0.00,,,0.00,Weather View 32 v70,2013-02-21 03:24:00,
2013-02-20 22:34:00,21.0,16.1,30.20,North,360,1.0,8.0,81,0.00,,,0.00,Weather View 32 v70,2013-02-21 03:34:00,
2013-02-20 22:44:00,21.0,16.4,30.20,North,360,3.0,8.0,82,0.00,,,0.00,Weather View 32 v70,2013-02-21 03:44:00,
2013-02-20 22:49:00,21.0,16.1,30.20,North,360,4.0,8.0,81,0.00,,,0.00,Weather View 32 v70,2013-02-21 03:49:00,
2013-02-20 22:54:00,21.0,16.4,30.20,North,360,1.0,8.0,82,0.00,,,0.00,Weather View 32 v70,2013-02-21 03:54:00,
2013-02-20 22:59:00,21.0,16.4,30.20,North,360,4.0,8.0,82,0.00,,,0.00,Weather View 32 v70,2013-02-21 03:59:00,
2013-02-20 23:04:00,20.0,15.7,30.20,North,360,5.0,8.0,83,0.00,,,0.00,Weather View 32 v70,2013-02-21 04:04:00,
2013-02-20 23:14:00,20.0,15.7,30.20,NNE,22,0.0,6.0,83,0.00,,,0.00,Weather View 32 v70,2013-02-21 04:14:00,
2013-02-20 23:19:00,20.0,15.9,30.20,NNE,22,5.0,6.0,84,0.00,,,0.00,Weather View 32 v70,2013-02-21 04:19:00,
2013-02-20 23:24:00,20.0,15.9,30.20,North,360,2.0,6.0,84,0.00,,,0.00,Weather View 32 v70,2013-02-21 04:24:00,
2013-02-20 23:29:00,20.0,15.9,30.20,North,360,0.0,6.0,84,0.00,,,0.00,Weather View 32 v70,2013-02-21 04:29:00,
2013-02-20 23:34:00,20.0,16.2,30.19,North,360,0.0,6.0,85,0.00,,,0.00,Weather View 32 v70,2013-02-21 04:34:00,
2013-02-20 23:44:00,19.0,15.8,30.19,North,360,3.0,6.0,87,0.00,,,0.00,Weather View 32 v70,2013-02-21 04:44:00,
2013-02-20 23:49:00,19.0,16.3,30.19,North,360,4.0,6.0,89,0.00,,,0.00,Weather View 32 v70,2013-02-21 04:49:00,
2013-02-20 23:54:00,19.0,16.3,30.19,NNE,22,1.0,6.0,89,0.00,,,0.00,Weather View 32 v70,2013-02-21 04:54:00,
2013-02-20 23:59:00,20.0,17.3,30.20,NE,45,4.0,6.0,89,0.00,,,0.00,Weather View 32 v70,2013-02-21 04:59:00,